PSCSF SBPO-SBCG

Flight info

Callsign PSCSF
Flight time 1h 3m
Altitude 45000
Route VUGLA DCT FIGOS
Aircraft C25C/M-SDE2E3FGHRWXY/LB1

Departure

Time 2026-05-06 17:14
Airport Juvenal Loureiro Cardoso Airport (SBPO)

Arrival

Time 2026-05-06 18:18
Airport Campo Grande Airport (SBCG)
Time Latitude Longitude Altitude Speed Heading
2026-05-06 17:01 -26.21611 -52.69169 2682 ft 0 kts 328°
2026-05-06 17:11 -26.21610 -52.69171 2686 ft 1 kts 291°
2026-05-06 17:11 -26.21611 -52.69202 2682 ft 12 kts 303°
2026-05-06 17:11 -26.21627 -52.69310 2684 ft 17 kts 233°
2026-05-06 17:11 -26.21692 -52.69411 2686 ft 16 kts 236°
2026-05-06 17:12 -26.21756 -52.69513 2685 ft 17 kts 236°
2026-05-06 17:12 -26.21825 -52.69628 2684 ft 19 kts 235°
2026-05-06 17:12 -26.21909 -52.69751 2683 ft 22 kts 233°
2026-05-06 17:12 -26.22001 -52.69896 2683 ft 23 kts 234°
2026-05-06 17:13 -26.22067 -52.70000 2682 ft 9 kts 236°
2026-05-06 17:13 -26.22093 -52.70060 2682 ft 3 kts 208°
2026-05-06 17:13 -26.22088 -52.70030 2683 ft 0 kts 54°
2026-05-06 17:14 -26.22088 -52.70029 2683 ft 0 kts 54°
2026-05-06 17:14 -26.21988 -52.69873 2683 ft 71 kts 54°
2026-05-06 17:14 -26.21520 -52.69142 2706 ft 157 kts 51°
2026-05-06 17:14 -26.20806 -52.67984 3379 ft 196 kts 50°
2026-05-06 17:15 -26.19993 -52.66660 4540 ft 217 kts 52°
2026-05-06 17:15 -26.19125 -52.65173 5795 ft 241 kts 52°
2026-05-06 17:15 -26.18131 -52.63560 6864 ft 265 kts 51°
2026-05-06 17:15 -26.16730 -52.62220 7986 ft 270 kts 17°
2026-05-06 17:16 -26.14903 -52.62118 9387 ft 268 kts 344°
2026-05-06 17:16 -26.13202 -52.63006 10651 ft 275 kts 329°
2026-05-06 17:16 -26.11558 -52.64144 11840 ft 282 kts 327°
2026-05-06 17:16 -26.09906 -52.65374 13046 ft 289 kts 326°
2026-05-06 17:17 -26.08032 -52.66200 14166 ft 297 kts 351°
2026-05-06 17:17 -26.05948 -52.66447 15155 ft 305 kts 351°
2026-05-06 17:17 -26.03765 -52.66800 15742 ft 330 kts 348°
2026-05-06 17:17 -26.01445 -52.67263 16483 ft 343 kts 348°
2026-05-06 17:18 -25.99072 -52.67703 17337 ft 349 kts 348°
2026-05-06 17:18 -25.96648 -52.68133 17855 ft 356 kts 348°
2026-05-06 17:18 -25.94196 -52.68581 18445 ft 360 kts 347°
2026-05-06 17:18 -25.91702 -52.69040 18968 ft 364 kts 348°
2026-05-06 17:19 -25.89192 -52.69497 19532 ft 367 kts 347°
2026-05-06 17:19 -25.86695 -52.69941 20070 ft 369 kts 347°
2026-05-06 17:19 -25.84117 -52.70427 20634 ft 372 kts 347°
2026-05-06 17:19 -25.81549 -52.70892 21173 ft 375 kts 347°
2026-05-06 17:20 -25.78963 -52.71356 21708 ft 378 kts 347°
2026-05-06 17:20 -25.76354 -52.71830 22239 ft 382 kts 347°
2026-05-06 17:20 -25.73758 -52.72304 22759 ft 385 kts 347°
2026-05-06 17:20 -25.71106 -52.72788 23284 ft 388 kts 347°
2026-05-06 17:21 -25.68432 -52.73274 23764 ft 391 kts 347°
2026-05-06 17:21 -25.65737 -52.73761 24191 ft 394 kts 347°
2026-05-06 17:21 -25.63025 -52.74254 24622 ft 397 kts 346°
2026-05-06 17:21 -25.60287 -52.74751 25050 ft 400 kts 346°
2026-05-06 17:22 -25.57529 -52.75252 25471 ft 403 kts 346°
2026-05-06 17:22 -25.54754 -52.75756 25866 ft 406 kts 346°
2026-05-06 17:22 -25.51952 -52.76264 26254 ft 409 kts 346°
2026-05-06 17:22 -25.49133 -52.76771 26657 ft 412 kts 346°
2026-05-06 17:23 -25.46293 -52.77288 27034 ft 415 kts 346°
2026-05-06 17:23 -25.43432 -52.77806 27407 ft 418 kts 346°
2026-05-06 17:23 -25.40554 -52.78325 27765 ft 420 kts 346°
2026-05-06 17:23 -25.37658 -52.78849 28101 ft 423 kts 346°
2026-05-06 17:24 -25.34744 -52.79374 28473 ft 424 kts 345°
2026-05-06 17:24 -25.31829 -52.79901 28908 ft 424 kts 345°
2026-05-06 17:24 -25.28919 -52.80426 29368 ft 424 kts 345°
2026-05-06 17:24 -25.26009 -52.80952 29819 ft 424 kts 345°
2026-05-06 17:25 -25.23101 -52.81474 30269 ft 423 kts 345°
2026-05-06 17:25 -25.20195 -52.82001 30652 ft 424 kts 345°
2026-05-06 17:25 -25.17285 -52.82523 31028 ft 424 kts 345°
2026-05-06 17:25 -25.14372 -52.83049 31384 ft 424 kts 345°
2026-05-06 17:26 -25.11457 -52.83573 31743 ft 424 kts 344°
2026-05-06 17:26 -25.08540 -52.84098 32098 ft 425 kts 345°
2026-05-06 17:26 -25.05622 -52.84621 32474 ft 425 kts 344°
2026-05-06 17:26 -25.02706 -52.85146 32842 ft 425 kts 344°
2026-05-06 17:27 -24.99778 -52.85673 33199 ft 426 kts 344°
2026-05-06 17:27 -24.96856 -52.86197 33547 ft 426 kts 344°
2026-05-06 17:27 -24.93965 -52.86716 33914 ft 427 kts 344°
2026-05-06 17:27 -24.91034 -52.87243 34267 ft 427 kts 343°
2026-05-06 17:28 -24.88103 -52.87766 34594 ft 427 kts 343°
2026-05-06 17:28 -24.85168 -52.88293 34917 ft 427 kts 343°
2026-05-06 17:28 -24.82236 -52.88819 35245 ft 428 kts 343°
2026-05-06 17:28 -24.79296 -52.89345 35541 ft 428 kts 342°
2026-05-06 17:29 -24.76352 -52.89872 35828 ft 429 kts 342°
2026-05-06 17:29 -24.73409 -52.90397 36168 ft 428 kts 342°
2026-05-06 17:29 -24.70470 -52.90924 36490 ft 428 kts 342°
2026-05-06 17:29 -24.67528 -52.91448 36804 ft 428 kts 342°
2026-05-06 17:30 -24.64588 -52.91974 37117 ft 428 kts 342°
2026-05-06 17:30 -24.61645 -52.92501 37415 ft 428 kts 341°
2026-05-06 17:30 -24.58703 -52.93025 37708 ft 429 kts 341°
2026-05-06 17:30 -24.55756 -52.93549 38006 ft 428 kts 341°
2026-05-06 17:31 -24.52817 -52.94073 38314 ft 428 kts 341°
2026-05-06 17:31 -24.49876 -52.94598 38600 ft 428 kts 341°
2026-05-06 17:31 -24.46937 -52.95122 38862 ft 429 kts 341°
2026-05-06 17:31 -24.44000 -52.95643 39149 ft 427 kts 341°
2026-05-06 17:32 -24.41067 -52.96164 39448 ft 426 kts 341°
2026-05-06 17:32 -24.38151 -52.96683 39746 ft 424 kts 341°
2026-05-06 17:32 -24.35237 -52.97202 40047 ft 423 kts 341°
2026-05-06 17:32 -24.32338 -52.97717 40348 ft 422 kts 341°
2026-05-06 17:33 -24.29447 -52.98229 40654 ft 420 kts 341°
2026-05-06 17:33 -24.26565 -52.98740 40961 ft 419 kts 341°
2026-05-06 17:33 -24.23696 -52.99251 41257 ft 417 kts 341°
2026-05-06 17:33 -24.20832 -52.99759 41552 ft 416 kts 341°
2026-05-06 17:34 -24.17978 -53.00264 41851 ft 415 kts 341°
2026-05-06 17:34 -24.15131 -53.00768 42159 ft 413 kts 341°
2026-05-06 17:34 -24.12294 -53.01271 42460 ft 412 kts 341°
2026-05-06 17:34 -24.09469 -53.01772 42747 ft 411 kts 341°
2026-05-06 17:35 -24.06646 -53.02271 43040 ft 410 kts 341°
2026-05-06 17:35 -24.03839 -53.02767 43335 ft 408 kts 341°
2026-05-06 17:35 -24.01036 -53.03263 43620 ft 408 kts 341°
2026-05-06 17:36 -23.95451 -53.04250 44171 ft 406 kts 341°
2026-05-06 17:36 -23.92668 -53.04741 44448 ft 404 kts 341°
2026-05-06 17:36 -23.89892 -53.05231 44708 ft 404 kts 341°
2026-05-06 17:36 -23.87121 -53.05721 44924 ft 403 kts 341°
2026-05-06 17:37 -23.81533 -53.06710 45017 ft 411 kts 341°
2026-05-06 17:37 -23.75822 -53.07715 45045 ft 420 kts 341°
2026-05-06 17:38 -23.69993 -53.08739 45057 ft 428 kts 341°
2026-05-06 17:38 -23.64067 -53.09782 45053 ft 435 kts 342°
2026-05-06 17:39 -23.58085 -53.10831 45051 ft 441 kts 342°
2026-05-06 17:39 -23.52046 -53.11888 45049 ft 437 kts 342°
2026-05-06 17:40 -23.46076 -53.12935 45042 ft 432 kts 342°
2026-05-06 17:40 -23.40159 -53.13972 45038 ft 429 kts 342°
2026-05-06 17:41 -23.34288 -53.14999 45028 ft 426 kts 342°
2026-05-06 17:41 -23.28456 -53.16020 45030 ft 423 kts 342°
2026-05-06 17:42 -23.22656 -53.17034 45026 ft 421 kts 342°
2026-05-06 17:42 -23.16891 -53.18039 45033 ft 419 kts 342°
2026-05-06 17:43 -23.11144 -53.19043 45031 ft 416 kts 342°
2026-05-06 17:43 -23.05440 -53.20042 45029 ft 414 kts 342°
2026-05-06 17:44 -22.99773 -53.21029 45020 ft 412 kts 342°
2026-05-06 17:44 -22.95055 -53.21845 45020 ft 414 kts 343°
2026-05-06 17:45 -22.89349 -53.22835 45022 ft 416 kts 343°
2026-05-06 17:45 -22.83616 -53.23832 45023 ft 418 kts 343°
2026-05-06 17:46 -22.77863 -53.24834 45022 ft 419 kts 343°
2026-05-06 17:46 -22.72122 -53.25942 45021 ft 416 kts 338°
2026-05-06 17:47 -22.69430 -53.26961 45024 ft 405 kts 327°
2026-05-06 17:47 -22.67018 -53.28464 45028 ft 395 kts 316°
2026-05-06 17:47 -22.62861 -53.32256 45031 ft 391 kts 311°
2026-05-06 17:48 -22.58425 -53.35761 45030 ft 400 kts 321°
2026-05-06 17:48 -22.53746 -53.38955 45028 ft 398 kts 317°
2026-05-06 17:49 -22.49191 -53.42364 45024 ft 400 kts 319°
2026-05-06 17:49 -22.44545 -53.45678 45022 ft 400 kts 318°
2026-05-06 17:50 -22.39927 -53.49042 45024 ft 401 kts 318°
2026-05-06 17:50 -22.37597 -53.50728 44723 ft 409 kts 319°
2026-05-06 17:50 -22.35199 -53.52462 44138 ft 421 kts 319°
2026-05-06 17:51 -22.32731 -53.54244 43574 ft 431 kts 319°
2026-05-06 17:51 -22.30209 -53.56065 43003 ft 441 kts 319°
2026-05-06 17:51 -22.27640 -53.57919 42419 ft 441 kts 320°
2026-05-06 17:51 -22.25125 -53.59721 41841 ft 427 kts 319°
2026-05-06 17:52 -22.22687 -53.61476 41284 ft 416 kts 319°
2026-05-06 17:52 -22.20306 -53.63202 40741 ft 408 kts 319°
2026-05-06 17:52 -22.17971 -53.64888 40209 ft 401 kts 319°
2026-05-06 17:52 -22.15670 -53.66544 39683 ft 394 kts 319°
2026-05-06 17:53 -22.13401 -53.68177 39170 ft 389 kts 319°
2026-05-06 17:53 -22.11164 -53.69788 38659 ft 384 kts 319°
2026-05-06 17:53 -22.08954 -53.71380 38112 ft 379 kts 319°
2026-05-06 17:53 -22.06779 -53.72943 37619 ft 373 kts 319°
2026-05-06 17:54 -22.04633 -53.74486 37133 ft 368 kts 319°
2026-05-06 17:54 -22.02515 -53.76010 36652 ft 364 kts 319°
2026-05-06 17:54 -22.00417 -53.77518 36175 ft 360 kts 319°
2026-05-06 17:54 -21.98342 -53.79010 35706 ft 358 kts 319°
2026-05-06 17:55 -21.96279 -53.80490 35227 ft 355 kts 319°
2026-05-06 17:55 -21.94230 -53.81961 34768 ft 353 kts 318°
2026-05-06 17:55 -21.92190 -53.83426 34306 ft 352 kts 318°
2026-05-06 17:55 -21.90154 -53.84886 33818 ft 352 kts 318°
2026-05-06 17:56 -21.88121 -53.86345 33344 ft 351 kts 319°
2026-05-06 17:56 -21.86091 -53.87799 32881 ft 350 kts 319°
2026-05-06 17:56 -21.84069 -53.89247 32427 ft 349 kts 319°
2026-05-06 17:56 -21.82053 -53.90693 31962 ft 348 kts 319°
2026-05-06 17:57 -21.80040 -53.92135 31505 ft 347 kts 319°
2026-05-06 17:57 -21.78029 -53.93573 31046 ft 347 kts 320°
2026-05-06 17:57 -21.76027 -53.95007 30592 ft 346 kts 320°
2026-05-06 17:57 -21.74019 -53.96444 30135 ft 346 kts 320°
2026-05-06 17:58 -21.72019 -53.97872 29641 ft 345 kts 320°
2026-05-06 17:58 -21.70028 -53.99295 29178 ft 342 kts 320°
2026-05-06 17:58 -21.68052 -54.00708 28727 ft 340 kts 321°
2026-05-06 17:58 -21.66088 -54.02112 28280 ft 338 kts 321°
2026-05-06 17:59 -21.64133 -54.03506 27836 ft 336 kts 321°
2026-05-06 17:59 -21.62188 -54.04897 27447 ft 341 kts 321°
2026-05-06 17:59 -21.60159 -54.06353 26974 ft 353 kts 322°
2026-05-06 17:59 -21.58123 -54.07796 26512 ft 348 kts 322°
2026-05-06 18:00 -21.56122 -54.09220 26067 ft 343 kts 322°
2026-05-06 18:00 -21.54147 -54.10630 25621 ft 339 kts 322°
2026-05-06 18:00 -21.52196 -54.12023 25186 ft 335 kts 322°
2026-05-06 18:00 -21.50259 -54.13402 24749 ft 333 kts 323°
2026-05-06 18:01 -21.48339 -54.14769 24317 ft 330 kts 323°
2026-05-06 18:01 -21.46433 -54.16127 23888 ft 328 kts 323°
2026-05-06 18:01 -21.44539 -54.17474 23441 ft 326 kts 323°
2026-05-06 18:01 -21.42659 -54.18814 22991 ft 322 kts 323°
2026-05-06 18:02 -21.40800 -54.20134 22567 ft 318 kts 323°
2026-05-06 18:02 -21.38964 -54.21441 22159 ft 315 kts 323°
2026-05-06 18:02 -21.37163 -54.22721 21751 ft 314 kts 323°
2026-05-06 18:02 -21.35343 -54.24016 21340 ft 315 kts 323°
2026-05-06 18:03 -21.33508 -54.25317 20923 ft 317 kts 324°
2026-05-06 18:03 -21.31662 -54.26629 20504 ft 320 kts 324°
2026-05-06 18:03 -21.29803 -54.27958 20077 ft 322 kts 325°
2026-05-06 18:03 -21.27927 -54.29281 19657 ft 324 kts 325°
2026-05-06 18:04 -21.26046 -54.30615 19228 ft 325 kts 325°
2026-05-06 18:04 -21.24153 -54.31960 18798 ft 327 kts 326°
2026-05-06 18:04 -21.22258 -54.33306 18367 ft 327 kts 326°
2026-05-06 18:04 -21.20358 -54.34649 17904 ft 326 kts 326°
2026-05-06 18:05 -21.18474 -54.35986 17472 ft 324 kts 327°
2026-05-06 18:05 -21.16598 -54.37315 17042 ft 322 kts 327°
2026-05-06 18:05 -21.14734 -54.38635 16612 ft 320 kts 328°
2026-05-06 18:05 -21.12879 -54.39949 16190 ft 319 kts 328°
2026-05-06 18:06 -21.11032 -54.41256 15769 ft 318 kts 329°
2026-05-06 18:06 -21.09185 -54.42562 15347 ft 317 kts 329°
2026-05-06 18:06 -21.07349 -54.43864 14930 ft 316 kts 329°
2026-05-06 18:06 -21.05514 -54.45162 14514 ft 316 kts 329°
2026-05-06 18:07 -21.03680 -54.46456 14091 ft 315 kts 329°
2026-05-06 18:07 -21.01851 -54.47747 13664 ft 314 kts 329°
2026-05-06 18:07 -21.00031 -54.49037 13225 ft 313 kts 329°
2026-05-06 18:07 -20.98226 -54.50308 12823 ft 308 kts 329°
2026-05-06 18:08 -20.96449 -54.51563 12423 ft 304 kts 329°
2026-05-06 18:08 -20.94692 -54.52804 12028 ft 301 kts 329°
2026-05-06 18:08 -20.92951 -54.54034 11633 ft 298 kts 329°
2026-05-06 18:08 -20.91226 -54.55251 11249 ft 296 kts 329°
2026-05-06 18:09 -20.89510 -54.56462 10855 ft 295 kts 329°
2026-05-06 18:09 -20.87822 -54.57645 10481 ft 294 kts 329°
2026-05-06 18:09 -20.86103 -54.58869 10085 ft 292 kts 328°
2026-05-06 18:09 -20.84410 -54.60056 9688 ft 291 kts 328°
2026-05-06 18:10 -20.82733 -54.61242 9290 ft 288 kts 328°
2026-05-06 18:10 -20.81157 -54.62357 8930 ft 286 kts 329°
2026-05-06 18:10 -20.79495 -54.63510 8563 ft 284 kts 329°
2026-05-06 18:10 -20.77851 -54.64674 8193 ft 282 kts 328°
2026-05-06 18:11 -20.76245 -54.65812 7831 ft 279 kts 328°
2026-05-06 18:11 -20.74648 -54.66930 7467 ft 269 kts 329°
2026-05-06 18:11 -20.73104 -54.68018 7123 ft 263 kts 329°
2026-05-06 18:11 -20.71592 -54.69076 6792 ft 257 kts 328°
2026-05-06 18:12 -20.70116 -54.70125 6461 ft 253 kts 329°
2026-05-06 18:12 -20.68653 -54.71147 6125 ft 249 kts 329°
2026-05-06 18:12 -20.67213 -54.72168 5804 ft 248 kts 327°
2026-05-06 18:12 -20.65987 -54.73458 5484 ft 248 kts 314°
2026-05-06 18:13 -20.64839 -54.74827 5161 ft 247 kts 315°
2026-05-06 18:13 -20.63672 -54.76177 4835 ft 249 kts 315°
2026-05-06 18:13 -20.62506 -54.77519 4499 ft 244 kts 318°
2026-05-06 18:13 -20.61076 -54.78398 4173 ft 235 kts 346°
2026-05-06 18:14 -20.59503 -54.78542 4068 ft 221 kts
2026-05-06 18:14 -20.58098 -54.78010 4032 ft 213 kts 30°
2026-05-06 18:14 -20.56951 -54.77041 3915 ft 209 kts 40°
2026-05-06 18:14 -20.55875 -54.76011 3758 ft 205 kts 41°
2026-05-06 18:15 -20.54835 -54.74984 3609 ft 203 kts 43°
2026-05-06 18:15 -20.53810 -54.73984 3355 ft 188 kts 41°
2026-05-06 18:15 -20.52936 -54.73141 3135 ft 155 kts 42°
2026-05-06 18:15 -20.52172 -54.72406 2938 ft 143 kts 43°
2026-05-06 18:16 -20.51495 -54.71746 2778 ft 115 kts 42°
2026-05-06 18:16 -20.50951 -54.71224 2619 ft 100 kts 44°
2026-05-06 18:16 -20.50463 -54.70739 2487 ft 97 kts 48°
2026-05-06 18:16 -20.49967 -54.70269 2367 ft 98 kts 45°
2026-05-06 18:17 -20.49450 -54.69770 2264 ft 104 kts 41°
2026-05-06 18:17 -20.48903 -54.69225 2139 ft 109 kts 46°
2026-05-06 18:17 -20.48340 -54.68693 1986 ft 108 kts 45°
2026-05-06 18:17 -20.47782 -54.68153 1850 ft 108 kts 44°
2026-05-06 18:18 -20.47273 -54.67658 1832 ft 86 kts 42°
2026-05-06 18:18 -20.46938 -54.67335 1833 ft 46 kts 42°
2026-05-06 18:18 -20.46701 -54.67113 1833 ft 45 kts 41°
2026-05-06 18:18 -20.46470 -54.66887 1831 ft 45 kts 42°
2026-05-06 18:19 -20.46239 -54.66665 1831 ft 44 kts 43°
2026-05-06 18:19 -20.46081 -54.66630 1833 ft 19 kts 338°
2026-05-06 18:19 -20.45963 -54.66680 1833 ft 18 kts 339°
2026-05-06 18:19 -20.45851 -54.66726 1833 ft 17 kts 324°
2026-05-06 18:20 -20.45837 -54.66806 1833 ft 16 kts 264°
2026-05-06 18:20 -20.45848 -54.66928 1833 ft 17 kts 263°
2026-05-06 18:20 -20.45861 -54.67052 1833 ft 17 kts 264°
2026-05-06 18:20 -20.45902 -54.67163 1833 ft 17 kts 220°
2026-05-06 18:21 -20.45915 -54.67212 1833 ft 7 kts 319°
2026-05-06 18:21 -20.45886 -54.67213 1833 ft 4 kts 85°
2026-05-06 18:21 -20.45898 -54.67196 1833 ft 0 kts 135°